Location: Harwich
(41.7160°N, 69.9939°W)
Time: 19:20:14
(UTC+01:00)

SR - All Passes

Search period start: 30 January 2023 00:00
Search period end: 09 February 2023 00:00
Orbit: 581 x 870 km, 66.7° (Epoch: 30 January)

Date Brightness Start Highest point End Pass type
(mag) Time Alt. Az. Time Alt. Az. Time Alt. Az.
30 Jan - 04:23:23 10° NNE 04:24:17 11° NE 04:25:12 10° NE night (unlit)
30 Jan - 06:02:46 10° NNW 06:07:05 76° ENE 06:11:18 10° SE night (unlit)
30 Jan - 20:31:47 10° S 20:36:56 51° ESE 20:41:41 10° NE daylight
30 Jan - 22:15:01 10° WSW 22:19:08 24° NW 22:23:01 10° N daylight
31 Jan - 05:12:35 10° NNW 05:16:31 34° NE 05:20:23 10° ESE night (unlit)
31 Jan - 06:54:56 10° WNW 06:58:16 22° WSW 07:01:34 10° SSW night (unlit)
31 Jan - 19:42:23 10° SSE 19:46:40 25° ESE 19:50:40 10° ENE daylight
31 Jan - 21:23:29 10° SW 21:28:27 44° NW 21:33:05 10° NNE daylight
01 Feb - 04:22:49 10° N 04:25:46 18° NE 04:28:40 10° E night (unlit)
01 Feb - 06:03:54 10° NW 06:08:03 52° WSW 06:12:10 10° SSE night (unlit)
01 Feb - 18:54:45 10° SE 18:56:32 12° ESE 18:58:15 10° E daylight
01 Feb - 20:32:39 10° SSW 20:37:56 87° WNW 20:42:48 10° NNE daylight
01 Feb - 22:17:47 10° WNW 22:20:32 15° NW 22:23:11 10° N daylight
02 Feb - 05:13:23 10° NNW 05:17:39 66° ENE 05:21:52 10° SE night (unlit)
02 Feb - 06:57:53 10° W 06:58:58 11° WSW 07:00:03 10° WSW night (unlit)
02 Feb - 19:42:32 10° S 19:47:34 45° ESE 19:52:13 10° NE daylight
02 Feb - 21:25:26 10° WSW 21:29:41 26° NW 21:33:41 10° N daylight
03 Feb - 04:23:15 10° NNW 04:27:04 30° NE 04:30:50 10° ESE night (unlit)
03 Feb - 06:05:23 10° NW 06:08:53 25° WSW 06:12:23 10° SSW night (unlit)
03 Feb - 18:53:18 10° SSE 18:57:18 22° ESE 19:01:05 10° ENE daylight
03 Feb - 20:34:00 10° SW 20:39:02 48° NW 20:43:41 10° NNE daylight
04 Feb - 03:33:35 10° N 03:36:17 16° NE 03:38:56 10° E night (unlit)
04 Feb - 05:14:27 10° NW 05:18:38 60° WSW 05:22:49 10° SSE night (unlit)
04 Feb - 19:43:16 10° SSW 19:48:32 84° ESE 19:53:23 10° NNE daylight
04 Feb - 21:28:02 10° W 21:31:03 16° NW 21:33:56 10° N daylight
05 Feb - 04:23:59 10° NNW 04:28:13 58° ENE 04:32:23 10° SE night (unlit)
05 Feb - 06:07:47 10° W 06:09:37 13° WSW 06:11:27 10° SW night (unlit)
05 Feb - 18:53:16 10° S 18:58:10 40° ESE 19:02:43 10° NE daylight
05 Feb - 20:35:51 10° WSW 20:40:14 28° NW 20:44:20 10° N daylight
06 Feb - 03:33:55 10° N 03:37:36 27° NE 03:41:14 10° ESE night (unlit)
06 Feb - 05:15:50 10° NW 05:19:30 29° WSW 05:23:10 10° S night (unlit)
06 Feb - 18:04:14 10° SSE 18:07:56 20° ESE 18:11:26 10° ENE daylight
06 Feb - 19:44:32 10° SW 19:49:36 54° WNW 19:54:17 10° NNE daylight
07 Feb - 02:44:22 10° N 02:46:47 14° NE 02:49:09 10° ENE night (unlit)
07 Feb - 04:24:58 10° NW 04:29:13 69° WSW 04:33:26 10° SSE night (unlit)
07 Feb - 18:53:55 10° SSW 18:59:08 76° ESE 19:03:55 10° NNE daylight
07 Feb - 20:38:18 10° W 20:41:33 17° NW 20:44:39 10° N daylight
08 Feb - 03:34:35 10° NNW 03:38:46 51° NE 03:42:54 10° SE night (unlit)
08 Feb - 05:17:56 10° WNW 05:20:14 14° WSW 05:22:34 10° SW night (unlit)
08 Feb - 18:04:02 10° S 18:08:46 36° ESE 18:13:11 10° NE daylight
08 Feb - 19:46:17 10° WSW 19:50:46 30° NW 19:54:58 10° N daylight
